Year,Month,Day,Hour,Minute,Value (Times are PST for windgust in km/hr)
2015,08,15,00,00,25.70
2015,08,15,00,01,22.50
2015,08,15,00,02,29.00
2015,08,15,00,03,29.00
2015,08,15,00,04,29.00
2015,08,15,00,05,20.90
2015,08,15,00,06,17.70
2015,08,15,00,07,37.00
2015,08,15,00,08,19.30
2015,08,15,00,09,19.30
2015,08,15,00,10,32.20
2015,08,15,00,11,32.20
2015,08,15,00,12,32.20
2015,08,15,00,13,32.20
2015,08,15,00,14,27.40
2015,08,15,00,15,25.70
2015,08,15,00,16,20.90
2015,08,15,00,17,35.40
2015,08,15,00,18,16.10
2015,08,15,00,19,22.50
2015,08,15,00,20,32.20
2015,08,15,00,21,27.40
2015,08,15,00,22,22.50
2015,08,15,00,23,33.80
2015,08,15,00,24,17.70
2015,08,15,00,25,27.40
2015,08,15,00,26,32.20
2015,08,15,00,27,27.40
2015,08,15,00,28,25.70
2015,08,15,00,29,40.20
2015,08,15,00,30,29.00
2015,08,15,00,31,22.50
2015,08,15,00,32,30.60
2015,08,15,00,33,24.20
2015,08,15,00,34,19.30
2015,08,15,00,35,25.70
2015,08,15,00,36,25.70
2015,08,15,00,37,25.70
2015,08,15,00,38,22.50
2015,08,15,00,39,25.70
2015,08,15,00,40,20.90
2015,08,15,00,41,22.50
2015,08,15,00,42,20.90
2015,08,15,00,43,22.50
2015,08,15,00,44,35.40
2015,08,15,00,45,22.50
2015,08,15,00,46,20.90
2015,08,15,00,47,27.40
2015,08,15,00,48,24.20
2015,08,15,00,49,16.10
2015,08,15,00,50,17.70
2015,08,15,00,51,24.20
2015,08,15,00,52,27.40
2015,08,15,00,53,25.70
2015,08,15,00,54,20.90
2015,08,15,00,55,30.60
2015,08,15,00,56,19.30
2015,08,15,00,57,24.20
2015,08,15,00,58,35.40
2015,08,15,00,59,33.80
2015,08,15,01,00,33.80
2015,08,15,01,01,30.60
2015,08,15,01,02,20.90
2015,08,15,01,03,8.10
2015,08,15,01,04,20.90
2015,08,15,01,05,32.20
2015,08,15,01,06,22.50
2015,08,15,01,07,35.40
2015,08,15,01,08,29.00
2015,08,15,01,09,27.40
2015,08,15,01,10,22.50
2015,08,15,01,11,30.60
2015,08,15,01,12,24.20
2015,08,15,01,13,24.20
2015,08,15,01,14,33.80
2015,08,15,01,15,25.70
2015,08,15,01,16,20.90
2015,08,15,01,17,24.20
2015,08,15,01,18,20.90
2015,08,15,01,19,25.70
2015,08,15,01,20,20.90
2015,08,15,01,21,24.20
2015,08,15,01,22,29.00
2015,08,15,01,23,30.60
2015,08,15,01,24,29.00
2015,08,15,01,25,22.50
2015,08,15,01,26,19.30
2015,08,15,01,27,29.00
2015,08,15,01,28,40.20
2015,08,15,01,29,27.40
2015,08,15,01,30,27.40
2015,08,15,01,31,24.20
2015,08,15,01,32,22.50
2015,08,15,01,33,20.90
2015,08,15,01,34,35.40
2015,08,15,01,35,29.00
2015,08,15,01,36,29.00
2015,08,15,01,37,30.60
2015,08,15,01,38,32.20
2015,08,15,01,39,24.20
2015,08,15,01,40,27.40
2015,08,15,01,41,27.40
2015,08,15,01,42,37.00
2015,08,15,01,43,37.00
2015,08,15,01,44,32.20
2015,08,15,01,45,30.60
2015,08,15,01,46,24.20
2015,08,15,01,47,27.40
2015,08,15,01,48,32.20
2015,08,15,01,49,25.70
2015,08,15,01,50,25.70
2015,08,15,01,51,32.20
2015,08,15,01,52,38.60
2015,08,15,01,53,38.60
2015,08,15,01,54,25.70
2015,08,15,01,55,38.60
2015,08,15,01,56,30.60
2015,08,15,01,57,25.70
2015,08,15,01,58,22.50
2015,08,15,01,59,27.40
2015,08,15,02,00,32.20
2015,08,15,02,01,24.20
2015,08,15,02,02,24.20
2015,08,15,02,03,33.80
2015,08,15,02,04,40.20
2015,08,15,02,05,38.60
2015,08,15,02,06,27.40
2015,08,15,02,07,37.00
2015,08,15,02,08,27.40
2015,08,15,02,09,32.20
2015,08,15,02,10,20.90
2015,08,15,02,11,25.70
2015,08,15,02,12,20.90
2015,08,15,02,13,27.40
2015,08,15,02,14,33.80
2015,08,15,02,15,24.20
2015,08,15,02,16,25.70
2015,08,15,02,17,35.40
2015,08,15,02,18,29.00
2015,08,15,02,19,25.70
2015,08,15,02,20,19.30
2015,08,15,02,21,20.90
2015,08,15,02,22,40.20
2015,08,15,02,23,30.60
2015,08,15,02,24,25.70
2015,08,15,02,25,24.20
2015,08,15,02,26,25.70
2015,08,15,02,27,41.80
2015,08,15,02,28,45.10
2015,08,15,02,29,32.20
2015,08,15,02,30,30.60
2015,08,15,02,31,32.20
2015,08,15,02,32,29.00
2015,08,15,02,33,30.60
2015,08,15,02,34,30.60
2015,08,15,02,35,25.70
2015,08,15,02,36,20.90
2015,08,15,02,37,24.20
2015,08,15,02,38,25.70
2015,08,15,02,39,30.60
2015,08,15,02,40,30.60
2015,08,15,02,41,27.40
2015,08,15,02,42,32.20
2015,08,15,02,43,38.60
2015,08,15,02,44,25.70
2015,08,15,02,45,25.70
2015,08,15,02,46,17.70
2015,08,15,02,47,24.20
2015,08,15,02,48,29.00
2015,08,15,02,49,25.70
2015,08,15,02,50,29.00
2015,08,15,02,51,22.50
2015,08,15,02,52,19.30
2015,08,15,02,53,29.00
2015,08,15,02,54,32.20
2015,08,15,02,55,29.00
2015,08,15,02,56,25.70
2015,08,15,02,57,25.70
2015,08,15,02,58,20.90
2015,08,15,02,59,20.90
2015,08,15,03,00,48.30
2015,08,15,03,01,40.20
2015,08,15,03,02,30.60
2015,08,15,03,03,32.20
2015,08,15,03,04,30.60
2015,08,15,03,05,29.00
2015,08,15,03,06,32.20
2015,08,15,03,07,17.70
2015,08,15,03,08,24.20
2015,08,15,03,09,20.90
2015,08,15,03,10,24.20
2015,08,15,03,11,25.70
2015,08,15,03,12,37.00
2015,08,15,03,13,25.70
2015,08,15,03,14,24.20
2015,08,15,03,15,20.90
2015,08,15,03,16,19.30
2015,08,15,03,17,22.50
2015,08,15,03,18,32.20
2015,08,15,03,19,29.00
2015,08,15,03,20,25.70
2015,08,15,03,21,33.80
2015,08,15,03,22,24.20
2015,08,15,03,23,27.40
2015,08,15,03,24,22.50
2015,08,15,03,25,29.00
2015,08,15,03,26,33.80
2015,08,15,03,27,29.00
2015,08,15,03,28,33.80
2015,08,15,03,29,29.00
2015,08,15,03,30,27.40
2015,08,15,03,31,27.40
2015,08,15,03,32,29.00
2015,08,15,03,33,33.80
2015,08,15,03,34,37.00
2015,08,15,03,35,25.70
2015,08,15,03,36,25.70
2015,08,15,03,37,25.70
2015,08,15,03,38,37.00
2015,08,15,03,39,24.20
2015,08,15,03,40,32.20
2015,08,15,03,41,29.00
2015,08,15,03,42,33.80
2015,08,15,03,43,40.20
2015,08,15,03,44,19.30
2015,08,15,03,45,33.80
2015,08,15,03,46,27.40
2015,08,15,03,47,27.40
2015,08,15,03,48,24.20
2015,08,15,03,49,19.30
2015,08,15,03,50,22.50
2015,08,15,03,51,35.40
2015,08,15,03,52,38.60
2015,08,15,03,53,27.40
2015,08,15,03,54,27.40
2015,08,15,03,55,24.20
2015,08,15,03,56,24.20
2015,08,15,03,57,29.00
2015,08,15,03,58,33.80
2015,08,15,03,59,20.90
2015,08,15,04,00,27.40
2015,08,15,04,01,29.00
2015,08,15,04,02,30.60
2015,08,15,04,03,32.20
2015,08,15,04,04,22.50
2015,08,15,04,05,33.80
2015,08,15,04,06,25.70
2015,08,15,04,07,24.20
2015,08,15,04,08,25.70
2015,08,15,04,09,35.40
2015,08,15,04,10,33.80
2015,08,15,04,11,27.40
2015,08,15,04,12,35.40
2015,08,15,04,13,30.60
2015,08,15,04,14,17.70
2015,08,15,04,15,25.70
2015,08,15,04,16,22.50
2015,08,15,04,17,24.20
2015,08,15,04,18,35.40
2015,08,15,04,19,29.00
2015,08,15,04,20,20.90
2015,08,15,04,21,25.70
2015,08,15,04,22,20.90
2015,08,15,04,23,35.40
2015,08,15,04,24,25.70
2015,08,15,04,25,33.80
2015,08,15,04,26,16.10
2015,08,15,04,27,17.70
2015,08,15,04,28,24.20
2015,08,15,04,29,30.60
2015,08,15,04,30,38.60
2015,08,15,04,31,33.80
2015,08,15,04,32,24.20
2015,08,15,04,33,16.10
2015,08,15,04,34,25.70
2015,08,15,04,35,22.50
2015,08,15,04,36,19.30
2015,08,15,04,37,24.20
2015,08,15,04,38,32.20
2015,08,15,04,39,30.60
2015,08,15,04,40,24.20
2015,08,15,04,41,19.30
2015,08,15,04,42,16.10
2015,08,15,04,43,24.20
2015,08,15,04,44,20.90
2015,08,15,04,45,19.30
2015,08,15,04,46,17.70
2015,08,15,04,47,29.00
2015,08,15,04,48,27.40
2015,08,15,04,49,29.00
2015,08,15,04,50,24.20
2015,08,15,04,51,29.00
2015,08,15,04,52,27.40
2015,08,15,04,53,27.40
2015,08,15,04,54,25.70
2015,08,15,04,55,11.30
2015,08,15,04,56,20.90
2015,08,15,04,57,16.10
2015,08,15,04,58,22.50
2015,08,15,04,59,20.90
2015,08,15,05,00,24.20
2015,08,15,05,01,30.60
2015,08,15,05,02,35.40
2015,08,15,05,03,17.70
2015,08,15,05,04,32.20
2015,08,15,05,05,33.80
2015,08,15,05,06,37.00
2015,08,15,05,07,27.40
2015,08,15,05,08,19.30
2015,08,15,05,09,24.20
2015,08,15,05,10,32.20
2015,08,15,05,11,38.60
2015,08,15,05,12,29.00
2015,08,15,05,13,19.30
2015,08,15,05,14,24.20
2015,08,15,05,15,19.30
2015,08,15,05,16,22.50
2015,08,15,05,17,19.30
2015,08,15,05,18,20.90
2015,08,15,05,19,17.70
2015,08,15,05,20,27.40
2015,08,15,05,21,16.10
2015,08,15,05,22,16.10
2015,08,15,05,23,24.20
2015,08,15,05,24,11.30
2015,08,15,05,25,20.90
2015,08,15,05,26,25.70
2015,08,15,05,27,17.70
2015,08,15,05,28,9.60
2015,08,15,05,29,22.50
2015,08,15,05,30,19.30
2015,08,15,05,31,19.30
2015,08,15,05,32,12.90
2015,08,15,05,33,17.70
2015,08,15,05,34,25.70
2015,08,15,05,35,29.00
2015,08,15,05,36,20.90
2015,08,15,05,37,17.70
2015,08,15,05,38,17.70
2015,08,15,05,39,17.70
2015,08,15,05,40,27.40
2015,08,15,05,41,20.90
2015,08,15,05,42,27.40
2015,08,15,05,43,27.40
2015,08,15,05,44,25.70
2015,08,15,05,45,22.50
2015,08,15,05,46,24.20
2015,08,15,05,47,30.60
2015,08,15,05,48,25.70
2015,08,15,05,49,27.40
2015,08,15,05,50,25.70
2015,08,15,05,51,22.50
2015,08,15,05,52,27.40
2015,08,15,05,53,20.90
2015,08,15,05,54,24.20
2015,08,15,05,55,19.30
2015,08,15,05,56,29.00
2015,08,15,05,57,25.70
2015,08,15,05,58,20.90
2015,08,15,05,59,17.70
2015,08,15,06,00,22.50
2015,08,15,06,01,16.10
2015,08,15,06,02,20.90
2015,08,15,06,03,22.50
2015,08,15,06,04,33.80
2015,08,15,06,05,22.50
2015,08,15,06,06,22.50
2015,08,15,06,07,22.50
2015,08,15,06,08,33.80
2015,08,15,06,09,27.40
2015,08,15,06,10,24.20
2015,08,15,06,11,22.50
2015,08,15,06,12,29.00
2015,08,15,06,13,22.50
2015,08,15,06,14,25.70
2015,08,15,06,15,24.20
2015,08,15,06,16,27.40
2015,08,15,06,17,24.20
2015,08,15,06,18,20.90
2015,08,15,06,19,29.00
2015,08,15,06,20,30.60
2015,08,15,06,21,27.40
2015,08,15,06,22,22.50
2015,08,15,06,23,17.70
2015,08,15,06,24,17.70
2015,08,15,06,25,19.30
2015,08,15,06,26,29.00
2015,08,15,06,27,27.40
2015,08,15,06,28,19.30
2015,08,15,06,29,20.90
2015,08,15,06,30,24.20
2015,08,15,06,31,25.70
2015,08,15,06,32,19.30
2015,08,15,06,33,16.10
2015,08,15,06,34,25.70
2015,08,15,06,35,25.70
2015,08,15,06,36,20.90
2015,08,15,06,37,11.30
2015,08,15,06,38,16.10
2015,08,15,06,39,27.40
2015,08,15,06,40,22.50
2015,08,15,06,41,24.20
2015,08,15,06,42,17.70
2015,08,15,06,43,17.70
2015,08,15,06,44,20.90
2015,08,15,06,45,19.30
2015,08,15,06,46,22.50
2015,08,15,06,47,16.10
2015,08,15,06,48,22.50
2015,08,15,06,49,33.80
2015,08,15,06,50,25.70
2015,08,15,06,51,16.10
2015,08,15,06,52,20.90
2015,08,15,06,53,19.30
2015,08,15,06,54,24.20
2015,08,15,06,55,25.70
2015,08,15,06,56,25.70
2015,08,15,06,57,22.50
2015,08,15,06,58,20.90
2015,08,15,06,59,20.90
2015,08,15,07,00,19.30
2015,08,15,07,01,22.50
2015,08,15,07,02,17.70
2015,08,15,07,03,16.10
2015,08,15,07,04,20.90
2015,08,15,07,05,16.10
2015,08,15,07,06,20.90
2015,08,15,07,07,24.20
2015,08,15,07,08,20.90
2015,08,15,07,09,16.10
2015,08,15,07,10,14.50
2015,08,15,07,11,17.70
2015,08,15,07,12,17.70
2015,08,15,07,13,19.30
2015,08,15,07,14,19.30
2015,08,15,07,15,25.70
2015,08,15,07,16,27.40
2015,08,15,07,17,17.70
2015,08,15,07,18,27.40
2015,08,15,07,19,20.90
2015,08,15,07,20,20.90
2015,08,15,07,21,22.50
2015,08,15,07,22,27.40
2015,08,15,07,23,22.50
2015,08,15,07,24,20.90
2015,08,15,07,25,27.40
2015,08,15,07,26,22.50
2015,08,15,07,27,19.30
2015,08,15,07,28,22.50
2015,08,15,07,29,17.70
2015,08,15,07,30,24.20
2015,08,15,07,31,22.50
2015,08,15,07,32,16.10
2015,08,15,07,33,16.10
2015,08,15,07,34,17.70
2015,08,15,07,35,14.50
2015,08,15,07,36,17.70
2015,08,15,07,37,19.30
2015,08,15,07,38,16.10
2015,08,15,07,39,16.10
2015,08,15,07,40,17.70
2015,08,15,07,41,14.50
2015,08,15,07,42,20.90
2015,08,15,07,43,11.30
2015,08,15,07,44,17.70
2015,08,15,07,45,19.30
2015,08,15,07,46,11.30
2015,08,15,07,47,16.10
2015,08,15,07,48,19.30
2015,08,15,07,49,9.60
2015,08,15,07,50,20.90
2015,08,15,07,51,14.50
2015,08,15,07,52,14.50
2015,08,15,07,53,16.10
2015,08,15,07,54,14.50
2015,08,15,07,55,8.10
2015,08,15,07,56,19.30
2015,08,15,07,57,22.50
2015,08,15,07,58,17.70
2015,08,15,07,59,9.60
2015,08,15,08,00,11.30
2015,08,15,08,01,22.50
2015,08,15,08,02,16.10
2015,08,15,08,03,14.50
2015,08,15,08,04,6.40
2015,08,15,08,05,8.10
2015,08,15,08,06,9.60
2015,08,15,08,07,16.10
2015,08,15,08,08,12.90
2015,08,15,08,09,9.60
2015,08,15,08,10,11.30
2015,08,15,08,11,11.30
2015,08,15,08,12,17.70
2015,08,15,08,13,17.70
2015,08,15,08,14,16.10
2015,08,15,08,15,9.60
2015,08,15,08,16,9.60
2015,08,15,08,17,19.30
2015,08,15,08,18,14.50
2015,08,15,08,19,16.10
2015,08,15,08,20,19.30
2015,08,15,08,21,16.10
2015,08,15,08,22,11.30
2015,08,15,08,23,14.50
2015,08,15,08,24,3.20
2015,08,15,08,25,12.90
2015,08,15,08,26,3.20
2015,08,15,08,27,9.60
2015,08,15,08,28,16.10
2015,08,15,08,29,16.10
2015,08,15,08,30,11.30
2015,08,15,08,31,4.80
2015,08,15,08,32,11.30
2015,08,15,08,33,11.30
2015,08,15,08,34,8.10
2015,08,15,08,35,6.40
2015,08,15,08,36,4.80
2015,08,15,08,37,11.30
2015,08,15,08,38,6.40
2015,08,15,08,39,1.60
2015,08,15,08,40,3.20
2015,08,15,08,41,9.60
2015,08,15,08,42,9.60
2015,08,15,08,43,11.30
2015,08,15,08,44,4.80
2015,08,15,08,45,1.60
2015,08,15,08,46,4.80
2015,08,15,08,47,1.60
2015,08,15,08,48,3.20
2015,08,15,08,49,8.10
2015,08,15,08,50,12.90
2015,08,15,08,51,11.30
2015,08,15,08,52,12.90
2015,08,15,08,53,6.40
2015,08,15,08,54,6.40
2015,08,15,08,55,8.10
2015,08,15,08,56,8.10
2015,08,15,08,57,6.40
2015,08,15,08,58,6.40
2015,08,15,08,59,6.40
2015,08,15,09,00,6.40
2015,08,15,09,01,12.90
2015,08,15,09,02,8.10
2015,08,15,09,03,4.80
2015,08,15,09,04,8.10
2015,08,15,09,05,9.60
2015,08,15,09,06,11.30
2015,08,15,09,07,8.10
2015,08,15,09,08,8.10
2015,08,15,09,09,6.40
2015,08,15,09,10,9.60
2015,08,15,09,11,11.30
2015,08,15,09,12,8.10
2015,08,15,09,13,8.10
2015,08,15,09,14,8.10
2015,08,15,09,15,9.60
2015,08,15,09,16,9.60
2015,08,15,09,17,9.60
2015,08,15,09,18,8.10
2015,08,15,09,19,6.40
2015,08,15,09,20,3.20
2015,08,15,09,21,3.20
2015,08,15,09,22,9.60
2015,08,15,09,23,4.80
2015,08,15,09,24,1.60
2015,08,15,09,25,1.60
2015,08,15,09,26,1.60
2015,08,15,09,27,3.20
2015,08,15,09,28,11.30
2015,08,15,09,29,9.60
2015,08,15,09,30,8.10
2015,08,15,09,31,6.40
2015,08,15,09,32,6.40
2015,08,15,09,33,6.40
2015,08,15,09,34,8.10
2015,08,15,09,35,11.30
2015,08,15,09,36,11.30
2015,08,15,09,37,9.60
2015,08,15,09,38,9.60
2015,08,15,09,39,8.10
2015,08,15,09,40,6.40
2015,08,15,09,41,8.10
2015,08,15,09,42,8.10
2015,08,15,09,43,11.30
2015,08,15,09,44,8.10
2015,08,15,09,45,6.40
2015,08,15,09,46,4.80
2015,08,15,09,47,6.40
2015,08,15,09,48,9.60
2015,08,15,09,49,11.30
2015,08,15,09,50,8.10
2015,08,15,09,51,4.80
2015,08,15,09,52,9.60
2015,08,15,09,53,8.10
2015,08,15,09,54,6.40
2015,08,15,09,55,11.30
2015,08,15,09,56,9.60
2015,08,15,09,57,8.10
2015,08,15,09,58,6.40
2015,08,15,09,59,8.10
2015,08,15,10,00,6.40
2015,08,15,10,01,6.40
2015,08,15,10,02,8.10
2015,08,15,10,03,6.40
2015,08,15,10,04,4.80
2015,08,15,10,05,6.40
2015,08,15,10,06,3.20
2015,08,15,10,07,1.60
2015,08,15,10,08,1.60
2015,08,15,10,09,6.40
2015,08,15,10,10,4.80
2015,08,15,10,11,4.80
2015,08,15,10,12,1.60
2015,08,15,10,13,3.20
2015,08,15,10,14,3.20
2015,08,15,10,15,4.80
2015,08,15,10,16,1.60
2015,08,15,10,17,8.10
2015,08,15,10,18,4.80
2015,08,15,10,19,4.80
2015,08,15,10,20,8.10
2015,08,15,10,21,6.40
2015,08,15,10,22,6.40
2015,08,15,10,23,6.40
2015,08,15,10,24,6.40
2015,08,15,10,25,6.40
2015,08,15,10,26,4.80
2015,08,15,10,27,4.80
2015,08,15,10,28,3.20
2015,08,15,10,29,6.40
2015,08,15,10,30,8.10
2015,08,15,10,31,8.10
2015,08,15,10,32,1.60
2015,08,15,10,34,4.80
2015,08,15,10,35,6.40
2015,08,15,10,36,4.80
2015,08,15,10,37,4.80
2015,08,15,10,38,3.20
2015,08,15,10,40,4.80
2015,08,15,10,41,3.20
2015,08,15,10,43,1.60
2015,08,15,10,44,3.20
2015,08,15,10,45,1.60
2015,08,15,10,46,1.60
2015,08,15,10,48,3.20
2015,08,15,10,50,1.60
2015,08,15,10,51,1.60
2015,08,15,10,52,6.40
2015,08,15,10,53,4.80
2015,08,15,10,54,3.20
2015,08,15,10,55,3.20
2015,08,15,10,56,3.20
2015,08,15,10,57,3.20
2015,08,15,10,58,4.80
2015,08,15,10,59,3.20
2015,08,15,11,00,1.60
2015,08,15,11,03,4.80
2015,08,15,11,04,6.40
2015,08,15,11,05,6.40
2015,08,15,11,06,8.10
2015,08,15,11,07,8.10
2015,08,15,11,08,9.60
2015,08,15,11,09,9.60
2015,08,15,11,10,8.10
2015,08,15,11,11,6.40
2015,08,15,11,12,4.80
2015,08,15,11,13,6.40
2015,08,15,11,14,8.10
2015,08,15,11,15,6.40
2015,08,15,11,16,6.40
2015,08,15,11,17,1.60
2015,08,15,11,18,6.40
2015,08,15,11,19,6.40
2015,08,15,11,20,6.40
2015,08,15,11,21,3.20
2015,08,15,11,22,4.80
2015,08,15,11,23,3.20
2015,08,15,11,24,1.60
2015,08,15,11,25,3.20
2015,08,15,11,26,3.20
2015,08,15,11,27,3.20
2015,08,15,11,28,4.80
2015,08,15,11,29,8.10
2015,08,15,11,30,8.10
2015,08,15,11,31,8.10
2015,08,15,11,32,8.10
2015,08,15,11,33,6.40
2015,08,15,11,34,9.60
2015,08,15,11,35,4.80
2015,08,15,11,36,8.10
2015,08,15,11,37,6.40
2015,08,15,11,38,8.10
2015,08,15,11,39,9.60
2015,08,15,11,40,9.60
2015,08,15,11,41,6.40
2015,08,15,11,42,6.40
2015,08,15,11,43,6.40
2015,08,15,11,44,8.10
2015,08,15,11,45,8.10
2015,08,15,11,46,8.10
2015,08,15,11,47,6.40
2015,08,15,11,48,4.80
2015,08,15,11,49,3.20
2015,08,15,11,50,8.10
2015,08,15,11,51,6.40
2015,08,15,11,52,6.40
2015,08,15,11,53,6.40
2015,08,15,11,54,6.40
2015,08,15,11,55,6.40
2015,08,15,11,56,6.40
2015,08,15,11,57,8.10
2015,08,15,11,58,9.60
2015,08,15,11,59,8.10
2015,08,15,12,00,8.10
2015,08,15,12,01,8.10
2015,08,15,12,02,9.60
2015,08,15,12,03,9.60
2015,08,15,12,04,9.60
2015,08,15,12,05,6.40
2015,08,15,12,06,8.10
2015,08,15,12,07,4.80
2015,08,15,12,08,6.40
2015,08,15,12,09,3.20
2015,08,15,12,10,3.20
2015,08,15,12,11,6.40
2015,08,15,12,12,6.40
2015,08,15,12,13,8.10
2015,08,15,12,14,4.80
2015,08,15,12,15,3.20
2015,08,15,12,16,8.10
2015,08,15,12,17,8.10
2015,08,15,12,18,6.40
2015,08,15,12,19,1.60
2015,08,15,12,20,3.20
2015,08,15,12,21,6.40
2015,08,15,12,22,3.20
2015,08,15,12,23,4.80
2015,08,15,12,24,3.20
2015,08,15,12,25,3.20
2015,08,15,12,26,3.20
2015,08,15,12,27,3.20
2015,08,15,12,28,1.60
2015,08,15,12,29,4.80
2015,08,15,12,30,3.20
2015,08,15,12,31,3.20
2015,08,15,12,32,3.20
2015,08,15,12,33,6.40
2015,08,15,12,34,4.80
2015,08,15,12,35,6.40
2015,08,15,12,36,6.40
2015,08,15,12,37,8.10
2015,08,15,12,38,8.10
2015,08,15,12,39,8.10
2015,08,15,12,40,6.40
2015,08,15,12,41,6.40
2015,08,15,12,42,6.40
2015,08,15,12,43,8.10
2015,08,15,12,44,6.40
2015,08,15,12,45,9.60
2015,08,15,12,46,8.10
2015,08,15,12,47,9.60
2015,08,15,12,48,9.60
2015,08,15,12,49,8.10
2015,08,15,12,50,6.40
2015,08,15,12,51,6.40
2015,08,15,12,52,6.40
2015,08,15,12,53,6.40
2015,08,15,12,54,3.20
2015,08,15,12,55,1.60
2015,08,15,12,58,3.20
2015,08,15,12,59,1.60
2015,08,15,13,00,1.60
2015,08,15,13,01,3.20
2015,08,15,13,02,6.40
2015,08,15,13,03,6.40
2015,08,15,13,04,8.10
2015,08,15,13,05,6.40
2015,08,15,13,06,4.80
2015,08,15,13,07,6.40
2015,08,15,13,08,4.80
2015,08,15,13,09,1.60
2015,08,15,13,10,4.80
2015,08,15,13,11,4.80
2015,08,15,13,12,4.80
2015,08,15,13,13,4.80
2015,08,15,13,14,6.40
2015,08,15,13,15,4.80
2015,08,15,13,16,4.80
2015,08,15,13,17,4.80
2015,08,15,13,18,4.80
2015,08,15,13,19,4.80
2015,08,15,13,20,4.80
2015,08,15,13,21,6.40
2015,08,15,13,22,6.40
2015,08,15,13,23,6.40
2015,08,15,13,24,6.40
2015,08,15,13,25,8.10
2015,08,15,13,26,6.40
2015,08,15,13,27,6.40
2015,08,15,13,28,6.40
2015,08,15,13,29,4.80
2015,08,15,13,30,8.10
2015,08,15,13,31,9.60
2015,08,15,13,32,11.30
2015,08,15,13,33,9.60
2015,08,15,13,34,11.30
2015,08,15,13,35,11.30
2015,08,15,13,36,9.60
2015,08,15,13,37,8.10
2015,08,15,13,38,4.80
2015,08,15,13,39,6.40
2015,08,15,13,40,6.40
2015,08,15,13,41,6.40
2015,08,15,13,42,6.40
2015,08,15,13,43,4.80
2015,08,15,13,44,4.80
2015,08,15,13,45,6.40
2015,08,15,13,46,6.40
2015,08,15,13,47,1.60
2015,08,15,13,48,6.40
2015,08,15,13,49,6.40
2015,08,15,13,50,4.80
2015,08,15,13,51,4.80
2015,08,15,13,52,4.80
2015,08,15,13,53,1.60
2015,08,15,13,54,4.80
2015,08,15,13,55,3.20
2015,08,15,13,56,4.80
2015,08,15,13,57,4.80
2015,08,15,13,58,4.80
2015,08,15,13,59,4.80
2015,08,15,14,00,3.20
2015,08,15,14,01,4.80
2015,08,15,14,02,1.60
2015,08,15,14,03,3.20
2015,08,15,14,04,3.20
2015,08,15,14,05,3.20
2015,08,15,14,06,6.40
2015,08,15,14,07,6.40
2015,08,15,14,08,6.40
2015,08,15,14,09,3.20
2015,08,15,14,10,3.20
2015,08,15,14,11,3.20
2015,08,15,14,12,3.20
2015,08,15,14,13,6.40
2015,08,15,14,14,6.40
2015,08,15,14,15,1.60
2015,08,15,14,16,4.80
2015,08,15,14,17,6.40
2015,08,15,14,18,8.10
2015,08,15,14,19,6.40
2015,08,15,14,20,6.40
2015,08,15,14,21,6.40
2015,08,15,14,22,4.80
2015,08,15,14,23,6.40
2015,08,15,14,24,3.20
2015,08,15,14,25,6.40
2015,08,15,14,26,6.40
2015,08,15,14,27,4.80
2015,08,15,14,28,1.60
2015,08,15,14,29,8.10
2015,08,15,14,30,8.10
2015,08,15,14,31,9.60
2015,08,15,14,32,8.10
2015,08,15,14,33,8.10
2015,08,15,14,34,8.10
2015,08,15,14,35,6.40
2015,08,15,14,36,8.10
2015,08,15,14,37,6.40
2015,08,15,14,38,3.20
2015,08,15,14,39,4.80
2015,08,15,14,40,6.40
2015,08,15,14,41,6.40
2015,08,15,14,42,6.40
2015,08,15,14,43,8.10
2015,08,15,14,44,6.40
2015,08,15,14,45,8.10
2015,08,15,14,46,4.80
2015,08,15,14,47,6.40
2015,08,15,14,48,4.80
2015,08,15,14,49,6.40
2015,08,15,14,50,6.40
2015,08,15,14,51,6.40
2015,08,15,14,52,4.80
2015,08,15,14,53,4.80
2015,08,15,14,54,6.40
2015,08,15,14,55,9.60
2015,08,15,14,56,6.40
2015,08,15,14,57,8.10
2015,08,15,14,58,8.10
2015,08,15,14,59,4.80
2015,08,15,15,00,1.60
2015,08,15,15,01,4.80
2015,08,15,15,02,3.20
2015,08,15,15,03,4.80
2015,08,15,15,04,4.80
2015,08,15,15,05,4.80
2015,08,15,15,06,6.40
2015,08,15,15,07,6.40
2015,08,15,15,08,8.10
2015,08,15,15,09,6.40
2015,08,15,15,10,1.60
2015,08,15,15,11,4.80
2015,08,15,15,12,1.60
2015,08,15,15,13,3.20
2015,08,15,15,14,6.40
2015,08,15,15,15,9.60
2015,08,15,15,16,9.60
2015,08,15,15,17,8.10
2015,08,15,15,18,9.60
2015,08,15,15,19,11.30
2015,08,15,15,20,11.30
2015,08,15,15,21,9.60
2015,08,15,15,22,12.90
2015,08,15,15,23,9.60
2015,08,15,15,24,11.30
2015,08,15,15,25,9.60
2015,08,15,15,26,9.60
2015,08,15,15,27,6.40
2015,08,15,15,28,8.10
2015,08,15,15,29,9.60
2015,08,15,15,30,9.60
2015,08,15,15,31,9.60
2015,08,15,15,32,6.40
2015,08,15,15,33,11.30
2015,08,15,15,34,9.60
2015,08,15,15,35,11.30
2015,08,15,15,36,8.10
2015,08,15,15,37,9.60
2015,08,15,15,38,6.40
2015,08,15,15,39,9.60
2015,08,15,15,40,11.30
2015,08,15,15,41,9.60
2015,08,15,15,42,6.40
2015,08,15,15,43,8.10
2015,08,15,15,44,8.10
2015,08,15,15,45,8.10
2015,08,15,15,46,6.40
2015,08,15,15,47,6.40
2015,08,15,15,48,8.10
2015,08,15,15,49,9.60
2015,08,15,15,50,9.60
2015,08,15,15,51,8.10
2015,08,15,15,52,9.60
2015,08,15,15,53,8.10
2015,08,15,15,54,8.10
2015,08,15,15,55,6.40
2015,08,15,15,56,4.80
2015,08,15,15,57,4.80
2015,08,15,15,58,8.10
2015,08,15,15,59,6.40
2015,08,15,16,00,6.40
2015,08,15,16,01,8.10
2015,08,15,16,02,8.10
2015,08,15,16,03,9.60
2015,08,15,16,04,6.40
2015,08,15,16,05,6.40
2015,08,15,16,06,6.40
2015,08,15,16,07,3.20
2015,08,15,16,08,3.20
2015,08,15,16,09,1.60
2015,08,15,16,10,6.40
2015,08,15,16,11,3.20
2015,08,15,16,12,4.80
2015,08,15,16,13,4.80
2015,08,15,16,14,1.60
2015,08,15,16,15,4.80
2015,08,15,16,16,1.60
2015,08,15,16,17,6.40
2015,08,15,16,18,4.80
2015,08,15,16,19,4.80
2015,08,15,16,20,6.40
2015,08,15,16,21,6.40
2015,08,15,16,22,6.40
2015,08,15,16,23,8.10
2015,08,15,16,24,4.80
2015,08,15,16,25,1.60
2015,08,15,16,26,4.80
2015,08,15,16,27,8.10
2015,08,15,16,28,8.10
2015,08,15,16,29,8.10
2015,08,15,16,30,6.40
2015,08,15,16,31,6.40
2015,08,15,16,32,6.40
2015,08,15,16,33,6.40
2015,08,15,16,34,8.10
2015,08,15,16,35,6.40
2015,08,15,16,36,8.10
2015,08,15,16,37,8.10
2015,08,15,16,38,6.40
2015,08,15,16,39,6.40
2015,08,15,16,40,6.40
2015,08,15,16,41,4.80
2015,08,15,16,42,4.80
2015,08,15,16,43,4.80
2015,08,15,16,44,3.20
2015,08,15,16,45,3.20
2015,08,15,16,46,1.60
2015,08,15,16,47,1.60
2015,08,15,16,48,3.20
2015,08,15,16,49,3.20
2015,08,15,16,50,3.20
2015,08,15,16,51,1.60
2015,08,15,16,52,3.20
2015,08,15,16,53,4.80
2015,08,15,16,54,6.40
2015,08,15,16,55,3.20
2015,08,15,16,56,4.80
2015,08,15,16,57,4.80
2015,08,15,16,58,8.10
2015,08,15,16,59,8.10
2015,08,15,17,00,6.40
2015,08,15,17,01,6.40
2015,08,15,17,02,8.10
2015,08,15,17,03,8.10
2015,08,15,17,04,6.40
2015,08,15,17,05,1.60
2015,08,15,17,06,6.40
2015,08,15,17,07,6.40
2015,08,15,17,08,6.40
2015,08,15,17,09,4.80
2015,08,15,17,10,3.20
2015,08,15,17,11,4.80
2015,08,15,17,12,4.80
2015,08,15,17,13,1.60
2015,08,15,17,14,3.20
2015,08,15,17,15,1.60
2015,08,15,17,16,4.80
2015,08,15,17,17,4.80
2015,08,15,17,18,3.20
2015,08,15,17,19,3.20
2015,08,15,17,20,1.60
2015,08,15,17,21,1.60
2015,08,15,17,24,1.60
2015,08,15,17,28,1.60
2015,08,15,17,29,3.20
2015,08,15,17,30,1.60
2015,08,15,17,31,1.60
2015,08,15,17,32,1.60
2015,08,15,17,33,3.20
2015,08,15,17,34,3.20
2015,08,15,17,35,1.60
2015,08,15,17,37,1.60
2015,08,15,17,38,4.80
2015,08,15,17,39,6.40
2015,08,15,17,40,9.60
2015,08,15,17,41,8.10
2015,08,15,17,42,6.40
2015,08,15,17,43,6.40
2015,08,15,17,44,6.40
2015,08,15,17,45,6.40
2015,08,15,17,46,6.40
2015,08,15,17,47,6.40
2015,08,15,17,48,6.40
2015,08,15,17,49,4.80
2015,08,15,17,50,3.20
2015,08,15,17,51,3.20
2015,08,15,17,53,1.60
2015,08,15,17,54,1.60
2015,08,15,17,56,3.20
2015,08,15,17,59,1.60
2015,08,15,18,03,1.60
2015,08,15,18,04,1.60